Regional Weather Roundup
Issued by NWS

Home | Current Version | Previous Version | Text Only | Print | Product List | Glossary On
Versions: 1 2 3 4 5 6 7 8 9 10 11 12 13 14 15 16 17 18 19 20 21 22 23 24 25 26 27 28 29 30 31 32 33 34 35 36 37 38 39 40 41 42 43 44 45 46 47 48 49 50
736
ASUS43 KFSD 281810
RWRSD

WEATHER ROUNDUP FOR SOUTH DAKOTA
NATIONAL WEATHER SERVICE SIOUX FALLS SD
100 PM CDT SUN AUG 28 2016

NOTE: "FAIR" INDICATES FEW OR NO CLOUDS BELOW 12,000 FEET WITH NO
SIGNIFICANT WEATHER AND/OR OBSTRUCTIONS TO VISIBILITY.


SDZ001>005-009-010-012>017-281900-
NORTHWEST AND NORTH CENTRAL SOUTH DAKOTA

CITY           SKY/WX    TMP DP  RH WIND       PRES   REMARKS
BUFFALO          N/A     89  45  21 VRB6      29.90S
FAITH            N/A     86  55  34 SE6       29.95S
MOBRIDGE       SUNNY     85  65  51 SE15      29.90S
$$

SDZ012>016-024>037-041>051-057-063-072>074-281900-
SOUTHWEST AND SOUTH CENTRAL SOUTH DAKOTA

CITY           SKY/WX    TMP DP  RH WIND       PRES   REMARKS
RAPID CTY ARPT SUNNY     85  49  28 S5        30.00R
PIERRE         SUNNY     88  63  43 S10       29.91F
CUSTER         SUNNY     82  29  14 VRB3      30.15S
ELLSWORTH AFB  SUNNY     85  50  29 SE5       29.99S
PHILIP         SUNNY     87  57  35 VRB6      29.93F
PINE RIDGE     SUNNY     86  48  26 W6        30.03S
WINNER         FAIR      93  64  38 S14       29.98S
$$

SDZ004>011-016>023-039-040-281900-
NORTHEAST SOUTH DAKOTA

CITY           SKY/WX    TMP DP  RH WIND       PRES   REMARKS
ABERDEEN       SUNNY     85  69  58 S17G28    29.95F
WATERTOWN      SUNNY     82  71  69 S20G26    30.03F
BROOKINGS      SUNNY     82  73  74 S16       30.05F
SISSETON         N/A     80  70  71 S21G30    29.98F
$$

SDZ017-020-022-023-036>040-048>070-281900-
SOUTHEAST SOUTH DAKOTA

CITY           SKY/WX    TMP DP  RH WIND       PRES   REMARKS
SIOUX FALLS    MOSUNNY   85  74  69 S15G25    30.07S
HURON          SUNNY     86  70  58 S17G23    29.97F
CHAMBERLAIN    SUNNY     92  69  46 S15G21    29.97S HX  96
MITCHELL       SUNNY     86  70  58 SE14G22   30.00F
YANKTON        SUNNY     88  70  55 SE13      30.03S
$$

ABBREVIATIONS USED IN REMARKS
   TC - TEMPERATURE IN CELSIUS
  WCI - WIND CHILL INDEX
   HX - HEAT INDEX
  VSB - VISIBILITY





USA.gov is the U.S. government's official web portal to all federal, state and local government web resources and services.